Previsão horária em Abay (Saryagashskiy rayon)

Hoje, 14 Abril, Quarta-feira

Tempo Temperatura Precipitação Vento Pressão Humidade
00:00 +14°C° 0 mm 2 m/s 732 mmHg 65%
01:00 +13°C° 0 mm 2 m/s 732 mmHg 64%
02:00 +12°C° 0 mm 3 m/s 731 mmHg 63%
03:00 +12°C° 0 mm 3 m/s 731 mmHg 59%
04:00 +12°C° 0 mm 3 m/s 731 mmHg 56%
05:00 +12°C° 0 mm 3 m/s 731 mmHg 51%
06:00 +13°C° 0 mm 3 m/s 731 mmHg 48%
07:00 +16°C° 0 mm 3 m/s 731 mmHg 44%
08:00 +17°C° 0 mm 2 m/s 731 mmHg 41%
09:00 +19°C° 0 mm 2 m/s 731 mmHg 36%
10:00 +21°C° 0 mm 2 m/s 731 mmHg 31%
11:00 +24°C° 0 mm 1 m/s 730 mmHg 27%
12:00 +25°C° 0 mm 1 m/s 730 mmHg 25%
13:00 +26°C° 0 mm 1 m/s 730 mmHg 23%
14:00 +27°C° 0 mm 1 m/s 729 mmHg 22%
15:00 +27°C° 0 mm 1 m/s 729 mmHg 23%
16:00 +27°C° 0 mm 1 m/s 729 mmHg 24%
17:00 +27°C° 0 mm 1 m/s 728 mmHg 25%
18:00 +24°C° 0.1 mm 2 m/s 728 mmHg 37%
19:00 +20°C° 0.1 mm 2 m/s 728 mmHg 50%
20:00 +17°C° 0.1 mm 3 m/s 728 mmHg 62%
21:00 +17°C° 0 mm 2 m/s 729 mmHg 65%
22:00 +16°C° 0 mm 2 m/s 729 mmHg 67%
23:00 +16°C° 0 mm 1 m/s 729 mmHg 69%

Amanhã, 15 Abril, Quinta-feira

Tempo Temperatura Precipitação Vento Pressão Humidade
00:00 +15°C° 0 mm 1 m/s 728 mmHg 71%
01:00 +14°C° 0 mm 1 m/s 728 mmHg 72%
02:00 +14°C° 0 mm 2 m/s 728 mmHg 74%
03:00 +13°C° 0 mm 1 m/s 728 mmHg 75%
04:00 +13°C° 0 mm 1 m/s 729 mmHg 76%
05:00 +13°C° 0 mm 1 m/s 729 mmHg 77%
06:00 +14°C° 0 mm 1 m/s 729 mmHg 71%
07:00 +15°C° 0 mm 1 m/s 730 mmHg 65%
08:00 +16°C° 0 mm 1 m/s 730 mmHg 59%
09:00 +19°C° 0 mm 1 m/s 730 mmHg 52%
10:00 +20°C° 0 mm 2 m/s 730 mmHg 44%
11:00 +21°C° 0 mm 2 m/s 731 mmHg 37%
12:00 +22°C° 0 mm 3 m/s 730 mmHg 33%
13:00 +24°C° 0 mm 3 m/s 730 mmHg 30%
14:00 +25°C° 0 mm 3 m/s 730 mmHg 26%
15:00 +24°C° 0 mm 3 m/s 730 mmHg 26%
16:00 +24°C° 0 mm 3 m/s 730 mmHg 27%
17:00 +24°C° 0 mm 3 m/s 730 mmHg 27%
18:00 +21°C° 0 mm 2 m/s 730 mmHg 31%
19:00 +20°C° 0 mm 2 m/s 730 mmHg 34%
20:00 +18°C° 0 mm 2 m/s 730 mmHg 38%
21:00 +17°C° 0 mm 2 m/s 729 mmHg 40%
22:00 +17°C° 0 mm 2 m/s 729 mmHg 41%
23:00 +16°C° 0 mm 3 m/s 729 mmHg 43%

Depois de amanhã, 16 Abril, Sexta-feira

Tempo Temperatura Precipitação Vento Pressão Humidade
00:00 +16°C° 0 mm 2 m/s 729 mmHg 43%
01:00 +16°C° 0 mm 2 m/s 729 mmHg 44%
02:00 +15°C° 0 mm 2 m/s 729 mmHg 44%
03:00 +15°C° 0 mm 1 m/s 729 mmHg 45%
04:00 +15°C° 0 mm 1 m/s 729 mmHg 46%
05:00 +14°C° 0 mm 1 m/s 729 mmHg 46%
06:00 +15°C° 0 mm 1 m/s 730 mmHg 45%
07:00 +16°C° 0 mm 1 m/s 730 mmHg 43%
08:00 +19°C° 0 mm 1 m/s 730 mmHg 42%
09:00 +20°C° 0 mm 1 m/s 731 mmHg 37%
10:00 +21°C° 0 mm 2 m/s 731 mmHg 33%
11:00 +23°C° 0 mm 2 m/s 731 mmHg 29%
12:00 +24°C° 0 mm 2 m/s 731 mmHg 27%
13:00 +25°C° 0 mm 2 m/s 731 mmHg 24%
14:00 +26°C° 0 mm 3 m/s 731 mmHg 22%
15:00 +26°C° 0 mm 3 m/s 731 mmHg 22%
16:00 +26°C° 0 mm 2 m/s 731 mmHg 21%
17:00 +25°C° 0 mm 2 m/s 731 mmHg 21%
18:00 +24°C° 0 mm 2 m/s 731 mmHg 24%
19:00 +21°C° 0 mm 2 m/s 731 mmHg 27%
20:00 +20°C° 0 mm 1 m/s 731 mmHg 29%
21:00 +18°C° 0 mm 2 m/s 730 mmHg 32%
22:00 +17°C° 0 mm 2 m/s 730 mmHg 34%
23:00 +16°C° 0 mm 2 m/s 730 mmHg 36%

17 Abril, Sábado

Tempo Temperatura Precipitação Vento Pressão Humidade
00:00 +16°C° 0 mm 2 m/s 730 mmHg 37%
01:00 +15°C° 0 mm 2 m/s 730 mmHg 38%
02:00 +14°C° 0 mm 3 m/s 729 mmHg 39%
03:00 +14°C° 0 mm 3 m/s 729 mmHg 40%
04:00 +14°C° 0 mm 3 m/s 730 mmHg 40%
05:00 +13°C° 0 mm 3 m/s 730 mmHg 40%
06:00 +16°C° 0 mm 2 m/s 730 mmHg 40%
07:00 +17°C° 0 mm 2 m/s 730 mmHg 39%
08:00 +18°C° 0 mm 2 m/s 731 mmHg 38%
09:00 +20°C° 0 mm 2 m/s 731 mmHg 34%
10:00 +22°C° 0 mm 3 m/s 731 mmHg 30%
11:00 +25°C° 0 mm 3 m/s 731 mmHg 26%
12:00 +25°C° 0 mm 4 m/s 731 mmHg 25%
13:00 +26°C° 0 mm 4 m/s 731 mmHg 24%
14:00 +26°C° 0 mm 4 m/s 731 mmHg 23%
15:00 +26°C° 0 mm 4 m/s 731 mmHg 26%
16:00 +25°C° 0 mm 5 m/s 730 mmHg 29%
17:00 +25°C° 0 mm 5 m/s 730 mmHg 32%
18:00 +22°C° 0 mm 4 m/s 731 mmHg 35%
19:00 +20°C° 0 mm 3 m/s 731 mmHg 39%
20:00 +19°C° 0 mm 3 m/s 731 mmHg 43%
21:00 +19°C° 0 mm 2 m/s 731 mmHg 43%
22:00 +18°C° 0 mm 2 m/s 731 mmHg 42%
23:00 +19°C° 0 mm 1 m/s 731 mmHg 42%

18 Abril, Domingo

Tempo Temperatura Precipitação Vento Pressão Humidade
00:00 +19°C° 0 mm 1 m/s 731 mmHg 42%
01:00 +19°C° 0 mm 1 m/s 731 mmHg 42%
02:00 +19°C° 0 mm 1 m/s 731 mmHg 41%
03:00 +18°C° 0 mm 1 m/s 731 mmHg 42%
04:00 +18°C° 0 mm 1 m/s 732 mmHg 42%
05:00 +18°C° 0 mm 1 m/s 732 mmHg 43%
06:00 +18°C° 0 mm 1 m/s 732 mmHg 43%
07:00 +19°C° 0 mm 1 m/s 733 mmHg 42%
08:00 +20°C° 0 mm 1 m/s 733 mmHg 42%
09:00 +20°C° 0 mm 2 m/s 733 mmHg 39%
10:00 +21°C° 0 mm 3 m/s 733 mmHg 36%
11:00 +24°C° 0 mm 3 m/s 734 mmHg 33%
12:00 +25°C° 0 mm 3 m/s 733 mmHg 30%
13:00 +25°C° 0 mm 3 m/s 733 mmHg 27%
14:00 +26°C° 0 mm 2 m/s 733 mmHg 24%
15:00 +26°C° 0 mm 2 m/s 733 mmHg 24%
16:00 +26°C° 0 mm 2 m/s 732 mmHg 24%
17:00 +26°C° 0 mm 2 m/s 732 mmHg 24%
18:00 +24°C° 0 mm 2 m/s 732 mmHg 26%
19:00 +21°C° 0 mm 2 m/s 732 mmHg 29%
20:00 +20°C° 0 mm 2 m/s 732 mmHg 31%
21:00 +19°C° 0 mm 2 m/s 731 mmHg 33%
22:00 +18°C° 0 mm 2 m/s 731 mmHg 35%
23:00 +17°C° 0 mm 2 m/s 731 mmHg 37%

19 Abril, Segunda-feira

Tempo Temperatura Precipitação Vento Pressão Humidade
00:00 +17°C° 0 mm 2 m/s 731 mmHg 38%
01:00 +17°C° 0 mm 2 m/s 730 mmHg 38%
02:00 +17°C° 0 mm 2 m/s 730 mmHg 38%
03:00 +17°C° 0 mm 2 m/s 730 mmHg 39%
04:00 +16°C° 0 mm 2 m/s 730 mmHg 39%
05:00 +16°C° 0 mm 2 m/s 730 mmHg 39%
06:00 +17°C° 0 mm 2 m/s 730 mmHg 38%
07:00 +18°C° 0 mm 2 m/s 730 mmHg 37%
08:00 +20°C° 0 mm 2 m/s 730 mmHg 37%
09:00 +21°C° 0 mm 2 m/s 730 mmHg 33%
10:00 +24°C° 0 mm 2 m/s 730 mmHg 29%
11:00 +26°C° 0 mm 2 m/s 729 mmHg 25%
12:00 +26°C° 0 mm 2 m/s 729 mmHg 23%
13:00 +27°C° 0 mm 1 m/s 728 mmHg 20%
14:00 +28°C° 0 mm 1 m/s 728 mmHg 17%
15:00 +28°C° 0 mm 1 m/s 728 mmHg 18%
16:00 +28°C° 0 mm 1 m/s 727 mmHg 18%
17:00 +26°C° 0 mm 0 m/s 727 mmHg 18%
18:00 +26°C° 0 mm 1 m/s 726 mmHg 21%
19:00 +25°C° 0 mm 2 m/s 726 mmHg 23%
20:00 +22°C° 0 mm 3 m/s 726 mmHg 26%
21:00 +23°C° 0 mm 2 m/s 726 mmHg 26%
22:00 +21°C° 0 mm 2 m/s 725 mmHg 27%
23:00 +21°C° 0 mm 2 m/s 725 mmHg 28%
Mostrar mais

Necessitamos do seu Consentimento

A Meteoprog e os seus Fornecedores de Serviços podem armazenar e aceder a dados pessoais como cookies, identificadores do dispositivo ou outras tecnologias semelhantes existentes no seu dispositivo e processar estes dados para personalizar conteúdos e anúncios, assim como funcionalidades nas redes sociais e análise de tráfego.

  • Armazenar e/ou aceder a informações no seu dispositivo

    Os cookies, identificadores do dispositivo ou outras informações podem ser armazenados ou acedidos no seu dispositivo, para os fins acima indicados.

  • Anúncios e conteúdos personalizados, medição de anúncios e conteúdos, dados sobre o público-alvo e desenvolvimento de produtos

    Os anúncios e os conteúdos podem ser personalizados com base num perfil. Podem ser adicionados dados adicionais para uma maior personalização dos anúncios e dos conteúdos. A eficácia dos anúncios e dos conteúdos pode ser medida. Podem ser obtidas informações sobre o público que visualizou os anúncios e os conteúdos. Estes dados podem ser usados para desenvolver ou melhorar sistemas, softwares ou a experiência do utilizador.

Ao clicar em "Eu concordo”, permitirá o uso de cookies, identificadores do dispositivo e web beacons mencionados ou outras tecnologias semelhantes. As configurações do navegador do seu dispositivo podem ser alteradas.

Para certos fins, podem ser invocados interesses legítimos ao invés de consentimento. Pode ler mais informação sobre este assunto na nossa Política de Privacidade e Cookies.